| time (UTC) | temp C | wind direction | speed KPH | gust KPH | rain 1hr cm | rain 24hr cm | rain mn cm | humidity % | barometer mb |
| 20260506114555 | 12 | 129 | 4.8 | 14.5 | 0.00 | 0.00 | 0.00 | 68 | 1011.2 |
| 20260506113050 | 13 | 110 | 4.8 | 11.3 | 0.00 | 0.00 | 0.00 | 64 | 1011.3 |
| 20260506111550 | 13 | 29 | 3.2 | 9.7 | 0.00 | 0.00 | 0.00 | 60 | 1011.2 |
| 20260506110047 | 13 | 67 | 3.2 | 9.7 | 0.00 | 0.00 | 0.00 | 62 | 1011.2 |
| 20260506104553 | 12 | 209 | 4.8 | 12.9 | 0.00 | 0.00 | 0.00 | 63 | 1011.2 |
| 20260506103053 | 13 | 147 | 3.2 | 11.3 | 0.00 | 0.00 | 0.00 | 63 | 1011.3 |
| 20260506101547 | 12 | 87 | 4.8 | 11.3 | 0.00 | 0.00 | 0.00 | 63 | 1011.3 |
| 20260506100105 | 12 | 102 | 3.2 | 12.9 | 0.00 | 0.00 | 0.00 | 65 | 1011.4 |
| 20260506094551 | 12 | 84 | 3.2 | 12.9 | 0.00 | 0.00 | 0.00 | 67 | 1011.5 |
| 20260506093056 | 12 | 248 | 3.2 | 14.5 | 0.00 | 0.00 | 0.00 | 67 | 1011.3 |
| 20260506091547 | 11 | 95 | 3.2 | 12.9 | 0.00 | 0.00 | 0.00 | 69 | 1011.3 |
| 20260506090047 | 11 | 66 | 3.2 | 12.9 | 0.00 | 0.00 | 0.00 | 72 | 1011.3 |
| 20260506084553 | 10 | 238 | 3.2 | 12.9 | 0.00 | 0.00 | 0.00 | 73 | 1011.2 |
| 20260506083050 | 11 | 226 | 3.2 | 16.1 | 0.00 | 0.00 | 0.00 | 72 | 1011.1 |
| 20260506081550 | 11 | 91 | 4.8 | 12.9 | 0.00 | 0.00 | 0.00 | 73 | 1011.1 |
| 20260506073055 | 10 | 66 | 4.8 | 12.9 | 0.00 | 0.00 | 0.00 | 77 | 1011.0 |
| 20260506071557 | 10 | 136 | 3.2 | 16.1 | 0.00 | 0.00 | 0.00 | 79 | 1010.9 |
| 20260506061548 | 8 | 15 | 1.6 | 9.7 | 0.00 | 0.00 | 0.00 | 85 | 1010.9 |
| 20260506044554 | 6 | 0 | 0.0 | 3.2 | 0.00 | 0.00 | 0.00 | 87 | 1010.7 |
| 20260506043052 | 7 | 0 | 0.0 | 1.6 | 0.00 | 0.00 | 0.00 | 86 | 1010.7 |
| 20260506041551 | 7 | 0 | 0.0 | 1.6 | 0.00 | 0.00 | 0.00 | 85 | 1010.7 |
| 20260506040108 | 7 | 0 | 0.0 | 1.6 | 0.00 | 0.00 | 0.00 | 84 | 1010.6 |
| 20260506034548 | 8 | 0 | 0.0 | 6.4 | 0.00 | 0.00 | 0.00 | 84 | 1010.8 |
| 20260506033053 | 8 | 237 | 0.0 | 3.2 | 0.00 | 0.00 | 0.00 | 84 | 1010.7 |
| 20260506031551 | 8 | 85 | 0.0 | 4.8 | 0.00 | 0.00 | 0.00 | 84 | 1010.9 |
| 20260506024556 | 8 | 59 | 0.0 | 3.2 | 0.00 | 0.00 | 0.00 | 85 | 1011.0 |
| 20260506023049 | 8 | 94 | 0.0 | 3.2 | 0.00 | 0.00 | 0.00 | 84 | 1011.0 |
| 20260506021547 | 9 | 0 | 0.0 | 4.8 | 0.00 | 0.00 | 0.00 | 84 | 1011.0 |
| 20260506020051 | 9 | 0 | 0.0 | 4.8 | 0.00 | 0.00 | 0.00 | 84 | 1011.0 |
| 20260506014556 | 9 | 0 | 1.6 | 6.4 | 0.00 | 0.00 | 0.00 | 83 | 1011.1 |
| 20260506013045 | 9 | 0 | 1.6 | 8.0 | 0.00 | 0.00 | 0.00 | 83 | 1011.3 |
| 20260506011550 | 9 | 77 | 1.6 | 8.0 | 0.00 | 0.00 | 0.00 | 83 | 1011.2 |
| 20260506010053 | 10 | 72 | 1.6 | 6.4 | 0.00 | 0.00 | 0.00 | 82 | 1011.2 |
| 20260506004553 | 10 | 0 | 3.2 | 8.0 | 0.00 | 0.00 | 0.00 | 82 | 1011.4 |
| 20260506003054 | 10 | 98 | 4.8 | 12.9 | 0.00 | 0.00 | 0.00 | 82 | 1011.5 |
| 20260506001558 | 10 | 56 | 4.8 | 12.9 | 0.00 | 0.00 | 0.00 | 81 | 1011.5 |
| 20260506000058 | 10 | 82 | 0.0 | 9.7 | 0.00 | 0.00 | 0.00 | 80 | 1011.6 |
| 20260505234551 | 10 | 84 | 4.8 | 9.7 | 0.00 | 0.00 | 0.00 | 79 | 1011.4 |
| 20260505233101 | 10 | 70 | 3.2 | 12.9 | 0.00 | 0.00 | 0.00 | 79 | 1011.4 |
| 20260505231553 | 10 | 68 | 1.6 | 12.9 | 0.00 | 0.00 | 0.00 | 79 | 1011.6 |
| 20260505230054 | 10 | 61 | 4.8 | 11.3 | 0.00 | 0.00 | 0.00 | 79 | 1011.6 |
| 20260505224551 | 11 | 75 | 3.2 | 12.9 | 0.00 | 0.00 | 0.00 | 79 | 1011.6 |
| 20260505223050 | 11 | 68 | 3.2 | 11.3 | 0.00 | 0.00 | 0.00 | 80 | 1011.5 |
| 20260505221558 | 11 | 303 | 4.8 | 14.5 | 0.00 | 0.00 | 0.00 | 79 | 1011.4 |
| 20260505220054 | 11 | 86 | 3.2 | 9.7 | 0.00 | 0.00 | 0.00 | 82 | 1011.4 |
| 20260505214549 | 11 | 0 | 0.0 | 3.2 | 0.00 | 0.00 | 0.00 | 82 | 1011.4 |
| 20260505213049 | 11 | 80 | 0.0 | 3.2 | 0.00 | 0.00 | 0.00 | 80 | 1011.5 |
| 20260505211547 | 11 | 0 | 0.0 | 6.4 | 0.00 | 0.00 | 0.00 | 78 | 1011.4 |
| 20260505210051 | 11 | 83 | 1.6 | 6.4 | 0.00 | 0.00 | 0.00 | 77 | 1011.4 |
| 20260505204551 | 11 | 59 | 1.6 | 6.4 | 0.00 | 0.00 | 0.00 | 77 | 1011.6 |
| 20260505203052 | 11 | 67 | 3.2 | 8.0 | 0.00 | 0.00 | 0.00 | 77 | 1011.4 |
| 20260505201551 | 11 | 55 | 3.2 | 8.0 | 0.00 | 0.00 | 0.00 | 76 | 1011.3 |
| 20260505200048 | 11 | 41 | 3.2 | 9.7 | 0.00 | 0.00 | 0.00 | 75 | 1011.1 |
| 20260505194558 | 11 | 84 | 3.2 | 12.9 | 0.00 | 0.00 | 0.00 | 75 | 1010.8 |
| 20260505193105 | 12 | 41 | 6.4 | 12.9 | 0.00 | 0.00 | 0.00 | 73 | 1010.8 |
| 20260505191547 | 12 | 75 | 6.4 | 11.3 | 0.00 | 0.00 | 0.00 | 69 | 1010.6 |
| 20260505190053 | 12 | 60 | 3.2 | 11.3 | 0.00 | 0.00 | 0.00 | 67 | 1010.4 |
| 20260505184553 | 12 | 79 | 3.2 | 9.7 | 0.00 | 0.00 | 0.00 | 67 | 1010.3 |
| 20260505183052 | 12 | 87 | 6.4 | 17.7 | 0.00 | 0.00 | 0.00 | 64 | 1010.2 |
| 20260505181545 | 13 | 62 | 8.0 | 14.5 | 0.00 | 0.00 | 0.00 | 61 | 1010.3 |
| 20260505180052 | 13 | 51 | 3.2 | 8.0 | 0.00 | 0.00 | 0.00 | 70 | 1010.3 |
| 20260505174552 | 13 | 88 | 3.2 | 9.7 | 0.00 | 0.00 | 0.00 | 73 | 1010.2 |
| 20260505173047 | 13 | 26 | 1.6 | 8.0 | 0.00 | 0.00 | 0.00 | 73 | 1010.1 |
| 20260505171551 | 13 | 71 | 3.2 | 9.7 | 0.00 | 0.00 | 0.00 | 72 | 1010.2 |
| 20260505170046 | 13 | 127 | 6.4 | 16.1 | 0.00 | 0.00 | 0.00 | 70 | 1010.4 |
| 20260505164553 | 15 | 108 | 3.2 | 14.5 | 0.00 | 0.00 | 0.00 | 68 | 1010.4 |
| 20260505163052 | 15 | 67 | 3.2 | 12.9 | 0.00 | 0.00 | 0.00 | 65 | 1010.3 |
| 20260505161551 | 15 | 108 | 8.0 | 17.7 | 0.00 | 0.00 | 0.00 | 63 | 1010.3 |
| 20260505153102 | 13 | 110 | 4.8 | 12.9 | 0.00 | 0.00 | 0.00 | 74 | 1010.6 |
| 20260505151549 | 13 | 84 | 3.2 | 16.1 | 0.00 | 0.00 | 0.00 | 74 | 1010.5 |
| 20260505124559 | 15 | 190 | 6.4 | 14.5 | 0.00 | 0.00 | 0.00 | 63 | 1011.0 |
| 20260505123107 | 15 | 131 | 6.4 | 16.1 | 0.00 | 0.00 | 0.00 | 64 | 1010.9 |
| 20260505121551 | 15 | 163 | 6.4 | 14.5 | 0.00 | 0.00 | 0.00 | 62 | 1010.9 |
| 20260505120056 | 15 | 72 | 8.0 | 16.1 | 0.00 | 0.00 | 0.00 | 63 | 1010.8 |